Grizzly Air Cargo 5382


PAFA
Fairbanks International Airport
Fairbanks, Alaska, US
PAGA
Edward G Pitka Sr. Airport
Galena, Alaska, US

Activity Log

Date Flight Route Aircraft Duration
No Flights Yet

Route Details

Aircraft Information
Primary: Saab 340AF
Backup: Not Available
Route Data
Distance: 234nm
Sched. Duration: 1h 50m
Avg. Duration: 0h 00m (-150m)
Times Flown: 0
Recm'd Route: FAI J122 GAL
Planned Altitude: 24,000ft
Origin Wx: PAFA 260553Z 00000KT 10SM BKN110 M02/M05 A2962 RMK AO2 SLP042 T10221050 11006 21033 58055
Dest. Wx: PAGA 260556Z AUTO 35007KT 10SM UP OVC003 00/M01 A2965 RMK AO2 RAE43UPB43 SLP043 P0000 60003 T00001006 10022 20000 58042 FZRANO
Notes:

Financial History
Total Freight: 0lbs
Average Load: 0lbs/flt
Fuel Used: 0lbs
Avg. Fuel Used: 0lbs/flt
Fuel Expense: $0
Avg. Fuel Expense: $0
Avg. Fuel Cost: $0/lbs
Total Gross Income: $0
Pilot Pay: $0
Total Expenses: $0
Total Revenue: $0
Average Revenue: $0